Location: Bégole
(43.1574°N, 0.3291°E)
Time: 06:12:14
(UTC+00:00)

CZ-4 R/B - Pass Details

Date: 28 January 2023
Orbit: 577 x 586 km, 97.7° (Epoch: 26 March)

Event Time Altitude Azimuth Distance (km) Brightness Sun altitude
Rises 18:18:39 0° 169° (SSE) 2,777 7.9 -13.5°
Reaches altitude 10° 18:20:47 10° 170° (S) 1,883 7.1 -13.9°
Maximum altitude 18:24:52 80° 257° (WSW) 593 4.5 -14.6°
Drops below altitude 10° 18:29:00 10° 345° (NNW) 1,903 7.1 -15.4°
Sets 18:31:10 0° 347° (NNW) 2,808 8.0 -15.8°
